Tracking 19795 objects as of 17-Jul-2019
HD Live streaming from Space Station
objects crossing your sky now

COSMOS 1275 DEB

Track COSMOS 1275 DEB now!
10-day predictions


NORAD ID: 42190
Int'l Code: 1981-053TE
Perigee: 808.1 km
Apogee: 879.5 km
Inclination: 82.9 °
Period: 101.6 minutes
Semi major axis: 7214 km
RCS: Unknown
Launch date: June 4, 1981
Source: Commonwealth of Independent States (former USSR) (CIS)
Launch site: PLESETSK MISSILE AND SPACE COMPLEX (PKMTR)

Note: This is SATELLITE DEBRIS
aabbcc
Your satellite tracking list
Your tracking list is empty




NASA's NSSDC Master Catalog

Two Line Element Set (TLE):
1 42190U 81053TE  19191.02343198  .00000092  00000-0  37085-4 0  9992
2 42190  82.9312 306.1409 0049430 131.2877 229.2575 14.16659535801977
Source of the keplerian elements: AFSPC